Weather History for Barrow, AK

Change the Weather History Date:

Saturday, April 12, 2014

  Actual Average Record
Temperature  
Mean Temperature -10 °F -1 °F  
Max Temperature 1 °F - 37 °F (1957)
Min Temperature -21 °F -8 °F -31 °F (1949)
Degree Days  
Heating Degree Days 75 66  
Month to date heating degree days 888 831  
Since 1 July heating degree days 14712 16083  
Cooling Degree Days 0    
Month to date cooling degree days 0  
Year to date cooling degree days 0  
Moisture  
Dew Point -14 °F    
Average Humidity 0    
Maximum Humidity 0    
Minimum Humidity 0    
Precipitation  
Precipitation 0.00 in 0.00 in 0.12 in (1965)
Month to date precipitation 0.01 0.06  
Year to date precipitation 0.43 0.42  
Snow  
Snow 0.00 in 0.10 in 1.60 in (2002)
Month to date snowfall 0.4 1.2  
Since 1 July snowfall 44.8 32.3  
Snow Depth 7.00 in    
Sea Level Pressure  
Sea Level Pressure 30.02 in    
Wind  
Wind Speed 8 mph (South)    
Max Wind Speed 14 mph    
Max Gust Speed 16 mph    
Visibility 10 miles    
Events      
T = Trace of Precipitation, MM = Missing Value Source: NWS Daily Summary

Daily Weather History Graph

Daily Weather History Graph

Search for Another Location

Airport:

Trip Planner

Search our weather history database for the weather conditions in past years. The results will help you decide how hot, cold, wet, or windy it might be!

Date:

Astronomy

Apr. 12, 2014 Rise Set
Actual Time 6:27 AM AKDT 10:31 PM AKDT
Civil Twilight 5:01 AM AKDT 12:00 AM AKDT
Nautical Twilight Sun does not rise Sun does not rise
Astronomical Twilight Sun does not rise Sun does not rise
Moon 7:06 PM AKDT (4/12) 6:31 AM AKDT (4/12)
Length of Visible Light 18h 59m
Length of Day
16h 04m
Waxing Gibbous, 93% of the Moon is Illuminated
Apr 12
Waxing Gibbous
Apr 14
Full
Apr 21
Last Quarter
Apr 28
New
May 6
First Quarter

Hourly Weather History & Observations

Time (AKDT) Temp. Windchill Dew Point Humidity Pressure Visibility Wind Dir Wind Speed Gust Speed Precip Events Conditions
12:53 AM -15.0 °F -31.0 °F -20.0 °F 78% 30.18 in 10.0 mi South 6.9 mph - N/A   Scattered Clouds
1:53 AM -15.0 °F -32.4 °F -20.9 °F 75% 30.17 in 10.0 mi South 8.1 mph - N/A   Clear
2:53 AM -18.9 °F -35.8 °F -24.0 °F 78% 30.16 in 10.0 mi South 6.9 mph - N/A   Clear
3:53 AM -20.0 °F -35.3 °F -25.1 °F 78% 30.14 in 10.0 mi South 5.8 mph - N/A   Clear
4:53 AM -11.0 °F -29.9 °F -16.1 °F 78% 30.13 in 10.0 mi SSW 10.4 mph - N/A   Partly Cloudy
5:53 AM -18.0 °F -34.7 °F -20.9 °F 87% 30.11 in 10.0 mi South 6.9 mph - N/A   Partly Cloudy
6:53 AM -15.0 °F -27.4 °F -20.0 °F 78% 30.09 in 10.0 mi South 4.6 mph - N/A   Partly Cloudy
7:53 AM -15.0 °F -31.0 °F -18.9 °F 82% 30.08 in 10.0 mi South 6.9 mph - N/A   Partly Cloudy
8:53 AM -14.1 °F -31.3 °F -18.9 °F 79% 30.06 in 10.0 mi South 8.1 mph - N/A   Partly Cloudy
9:53 AM -9.0 °F -28.4 °F -14.1 °F 79% 30.05 in 10.0 mi South 11.5 mph - N/A   Partly Cloudy
10:53 AM -9.0 °F -25.2 °F -15.0 °F 75% 30.03 in 10.0 mi SSE 8.1 mph - N/A   Clear
11:53 AM -5.1 °F -21.5 °F -11.0 °F 76% 30.01 in 10.0 mi SSE 9.2 mph - N/A   Clear
12:53 PM -0.9 °F -17.4 °F -8.0 °F 72% 30.01 in 10.0 mi South 10.4 mph - N/A   Clear
1:53 PM -2.0 °F -17.7 °F -9.0 °F 72% 30.00 in 10.0 mi South 9.2 mph - N/A   Clear
2:53 PM -0.0 °F -16.3 °F -8.0 °F 69% 29.98 in 10.0 mi South 10.4 mph - N/A   Clear
3:53 PM 1.0 °F -8.7 °F -6.0 °F 72% 29.96 in 10.0 mi South 4.6 mph - N/A   Clear
4:53 PM -0.0 °F -13.0 °F -7.1 °F 72% 29.95 in 10.0 mi SSE 6.9 mph - N/A   Clear
5:53 PM -0.0 °F -13.0 °F -7.1 °F 72% 29.93 in 10.0 mi SSE 6.9 mph - N/A   Clear
6:53 PM -0.9 °F -15.3 °F -7.1 °F 75% 29.92 in 10.0 mi SSE 8.1 mph - N/A   Clear
7:53 PM -2.0 °F -16.6 °F -8.0 °F 76% 29.90 in 10.0 mi SE 8.1 mph - N/A   Clear
8:53 PM -2.9 °F -11.2 °F -9.0 °F 75% 29.91 in 10.0 mi South 3.5 mph - N/A   Clear
9:53 PM -9.0 °F -25.2 °F -15.0 °F 75% 29.90 in 10.0 mi SSE 8.1 mph - N/A   Clear
10:53 PM -8.0 °F -22.5 °F -13.0 °F 79% 29.90 in 10.0 mi SSE 6.9 mph - N/A   Clear
11:53 PM -6.0 °F -24.6 °F -11.0 °F 79% 29.88 in 10.0 mi South 11.5 mph - N/A   Clear